Cohasset, MN

3:18 AM CST on February 12, 2016 (GMT -0600)
Near Hwy 63 & Hwy 72 Cohasset, MN | | Change Station
CLOSE
Current Station
Personal Weather Station
Location: Cohasset, MN
Elevation: 1292 ft
Nearby Weather Stations
Active Advisory: Wind Chill Advisory

Elev 1292 ft 47.24 °N, 93.59 °W | Updated 2 minutes ago

Mostly Cloudy
Mostly Cloudy
3.4 °F
Feels Like -7 °F
N
5.0
Wind Variable Wind from WNW
Gusts 10.0 mph

Today
High -- | Low -- °F
--% Chance of Precip.
Yesterday
High -- | Low -- °F
Precip. -- in
Pressure 30.17 in
Visibility 10.0 miles
Clouds Overcast 1900 ft
Windchill -7 °F
Dew Point -3 °F
Humidity 75%
Rainfall 0.00 in
Snow Depth Not available.
7:24 AM 5:33 PM
Waxing Crescent, 19% visible
METAR KGPZ 120915Z AUTO 32014G17KT 10SM OVC019 M16/M19 A3017 RMK AO1 TSNO
Pressure 30.17 in
Visibility 10.0 miles
Clouds Overcast 1900 ft
Windchill -7 °F
Dew Point -3 °F
Humidity 75%
Rainfall 0.00 in
Snow Depth Not available.
7:24 AM 5:33 PM
Waxing Crescent, 19% visible
METAR KGPZ 120915Z AUTO 32014G17KT 10SM OVC019 M16/M19 A3017 RMK AO1 TSNO

10-Day Weather Forecast

Almanac

Astronomy

Feb. 12, 2016 Rise Set
Actual Time
Civil Twilight
Nautical Twilight
Astronomical Twilight
Moon
Length of Visible Light
Length of Day
Tomorrow will be .
, % of the Moon is Illuminated

Today's Extremes

State Highs State Lows

Community

WunderPhotos

Upload Photos

1,892,286 photos uploaded!

WunderBlog® & News

Nearby

Air Quality

  Air Quality AQ Index Pollutant
Not available.

Snow Depth

Station Depth Elevation

Earthquake Activity

City Distance Mag. Time & Date
Minimum magnitude displayed is 2.5.

Coastal Water Temperatures

Place Temperature

Stations

Nearby Weather Stations

Station Location Temp. Windchill Dew Point Humidity Wind Precip. Elev Updated Type
                   

Watches & Warnings

Wind Chill Advisory
Issued: 7:40 PM CST Feb. 11, 2016 – National Weather Service

... Wind Chill Advisory remains in effect from midnight tonight to
noon CST Friday...

* wind chill values... 25 below to 35 below zero.

* Sustained winds... northwest 10 to 15 mph.

* Wind gusts... 20 to 25 mph... especially late tonight and Friday
morning.

* Frostbite time... 20 to 30 minutes on exposed skin.

Precautionary/preparedness actions...

A Wind Chill Advisory means that very cold air and winds will
combine to generate very cold wind chills. This may result in
hypothermia... and frost bite is possible if exposed skin is not
covered. If you venture outdoors... make sure you wear a hat and
gloves... and cover exposed skin exposed to the wind.